Home > Weather > Dieppe > Past weeks

Flag for Canada Past Weather in Dieppe, New Brunswick, Canada — Yesterday and Last 2 Weeks

Now
54 °F

Clear.


Feels Like: 52 °F
Forecast: 50 / 81 °F
Wind: 6 mph from Southwest

Location: Moncton

Current Time: Jun 25, 2016 at 2:13:28 AM

Latest Report: Jun 25, 2016 at 1:00 AM


Visibility: 15 mi

Pressure: 30.11 "Hg

Humidity: 82%

Dew Point: 48 °F

Location of DieppeLocation

Past Weather in Dieppe — Graph

°F

Dieppe Temperature Yesterday

Maximum temperature yesterday: 72 °F (at 5:00 PM)
Minimum temperature yesterday: 52 °F (at 4:00 AM)
Average temperature yesterday: 61 °F

High & Low Weather Summary for the Past Weeks

 TemperatureHumidityPressure
High84 °F (Jun 19, 3:00 PM)100% (Jun 10, 7:00 AM)30.19 "Hg (Jun 10, 7:00 AM)
Low41 °F (Jun 18, 2:00 AM)28% (Jun 18, 3:00 PM)29.35 "Hg (Jun 13, 3:00 PM)
Average58 °F73%29.77 "Hg
* Reported Jun 10 1:00 AM — Jun 25 1:00 AM, Dieppe, Weather by CustomWeather, © 2016

Note: Actual official high and low records may vary slightly from our data, if they occured in-between our weather recording intervals... More about our weather records

Advertising

Dieppe Weather History for the Previous 24 Hours

Scroll right to see more
 ConditionsComfort  
Time TempWeatherWind HumidityBarometerVisibility
1:00 AM
Sat, Jun 25
54 °FClear.6 mph82%30.11 "Hg15 mi
12:00 AM55 °FClear.8 mph77%30.11 "Hg15 mi
11:00 PM
Fri, Jun 24
57 °FPassing clouds.8 mph72%30.11 "Hg15 mi
10:00 PM57 °FPassing clouds.8 mph72%30.09 "Hg15 mi
9:00 PM64 °FPassing clouds.7 mph52%30.06 "Hg15 mi
8:00 PM70 °FPassing clouds.8 mph43%30.03 "Hg15 mi
7:00 PM72 °FScattered clouds.12 mph41%30.02 "Hg15 mi
6:00 PM70 °FPassing clouds.6 mph43%30.01 "Hg15 mi
5:00 PM72 °FPassing clouds.13 mph38%30.01 "Hg15 mi
4:00 PM70 °FPassing clouds.9 mph40%30.00 "Hg15 mi
3:00 PM70 °FScattered clouds.8 mph43%29.99 "Hg15 mi
2:00 PM70 °FPassing clouds.10 mph43%29.98 "Hg15 mi
1:00 PM68 °FPassing clouds.9 mph43%29.98 "Hg15 mi
12:00 PM66 °FPassing clouds.12 mph46%29.97 "Hg15 mi
11:00 AM64 °FPassing clouds.8 mph56%29.97 "Hg15 mi
10:00 AM63 °FPassing clouds.6 mph73%29.97 "Hg15 mi
9:00 AM59 °FPassing clouds.3 mph82%29.96 "Hg15 mi
8:00 AM55 °FPassing clouds.5 mph88%29.93 "Hg15 mi
7:00 AM54 °FScattered clouds.7 mph94%29.91 "Hg15 mi
6:00 AM52 °FPartly cloudy.7 mph100%29.89 "Hg15 mi
5:00 AM52 °FPassing clouds.6 mph100%29.87 "Hg15 mi
4:00 AM52 °FPassing clouds.6 mph100%29.86 "Hg15 mi
3:00 AM54 °FPassing clouds.6 mph94%29.85 "Hg15 mi
2:00 AM55 °FSprinkles. Mostly cloudy.8 mph88%29.86 "Hg15 mi
Weather by CustomWeather, © 2016

See weather overviewHow to use our weather pages